Location: Sluknov
(51.0170°N, 14.4670°E)
Time: 10:36:02
(UTC+01:00)

ISS - Pass Details

Date: 22 February 2026
Orbit: 416 x 426 km, 51.6° (Epoch: 9 March)

Event Time Altitude Azimuth Distance (km) Brightness Sun altitude
Exits shadow 05:01:18 83° 278° (W) 425 -3.9 -19.6°
Maximum altitude 05:01:24 88° 342° (NNW) 422 -3.9 -19.6°
Drops below altitude 10° 05:04:46 10° 80° (E) 1,494 0.3 -19.0°
Sets 05:06:52 0° 81° (E) 2,358 1.8 -18.7°
